TimeEST,TemperatureF,Dew PointF,Humidity,Sea Level PressureIn,VisibilityMPH,Wind Direction,Wind SpeedMPH,Gust SpeedMPH,PrecipitationIn,Events,Conditions,WindDirDegrees,DateUTC
12:02 AM,24.8,19.4,80,29.77,2.0,Calm,Calm,-,0.00,Snow,Light Snow,0,2013-03-03 05:02:00
12:14 AM,24.8,19.4,80,29.77,4.0,Calm,Calm,-,0.00,Snow,Light Snow,0,2013-03-03 05:14:00
12:39 AM,24.8,19.4,80,29.76,5.0,Calm,Calm,-,0.00,Snow,Light Snow,0,2013-03-03 05:39:00
12:54 AM,24.1,19.9,84,29.78,4.0,Calm,Calm,-,0.00,Snow,Light Snow,0,2013-03-03 05:54:00
1:08 AM,24.8,19.4,80,29.76,4.0,Calm,Calm,-,0.00,Snow,Light Snow,0,2013-03-03 06:08:00
1:54 AM,23.0,18.0,81,29.77,7.0,NNW,5.8,-,0.00,Snow,Light Snow,340,2013-03-03 06:54:00
2:54 AM,23.0,18.0,81,29.76,10.0,Calm,Calm,-,0.00,,Overcast,0,2013-03-03 07:54:00
3:54 AM,23.0,18.0,81,29.76,10.0,Calm,Calm,-,0.00,,Overcast,0,2013-03-03 08:54:00
4:54 AM,23.0,19.0,85,29.76,6.0,Calm,Calm,-,0.00,Snow,Light Snow,0,2013-03-03 09:54:00
5:54 AM,24.1,18.0,77,29.76,9.0,North,4.6,-,0.00,Snow,Light Snow,10,2013-03-03 10:54:00
6:54 AM,24.8,19.4,80,29.75,9.0,Calm,Calm,-,N/A,Snow,Light Snow,0,2013-03-03 11:54:00
7:28 AM,24.8,19.4,80,29.76,5.0,NNE,4.6,-,0.00,Snow,Light Snow,30,2013-03-03 12:28:00
7:33 AM,24.8,19.4,80,29.76,3.0,NNE,3.5,-,N/A,Snow,Light Snow,20,2013-03-03 12:33:00
7:40 AM,24.8,19.4,80,29.75,3.0,NNE,3.5,-,0.00,Snow,Light Snow,30,2013-03-03 12:40:00
7:46 AM,24.8,21.2,86,29.75,2.0,Calm,Calm,-,0.00,Snow,Light Snow,0,2013-03-03 12:46:00
7:54 AM,24.1,21.0,88,29.77,2.0,Calm,Calm,-,0.00,Snow,Light Snow,0,2013-03-03 12:54:00
8:05 AM,24.8,19.4,80,29.75,4.0,Calm,Calm,-,0.00,,Overcast,0,2013-03-03 13:05:00
8:19 AM,24.8,19.4,80,29.75,6.0,Calm,Calm,-,0.00,,Overcast,0,2013-03-03 13:19:00
8:39 AM,24.8,21.2,86,29.75,4.0,Calm,Calm,-,0.00,Snow,Light Snow,0,2013-03-03 13:39:00
8:47 AM,24.8,21.2,86,29.75,3.0,Calm,Calm,-,0.00,Snow,Light Snow,0,2013-03-03 13:47:00
8:54 AM,25.0,21.0,85,29.77,3.0,Calm,Calm,-,0.00,Snow,Light Snow,0,2013-03-03 13:54:00
9:10 AM,24.8,19.4,80,29.75,2.5,Calm,Calm,-,0.00,Snow,Light Snow,0,2013-03-03 14:10:00
9:23 AM,24.8,21.2,86,29.74,2.5,NNE,3.5,-,0.01,Snow,Light Snow,30,2013-03-03 14:23:00
9:33 AM,24.8,21.2,86,29.74,3.0,Calm,Calm,-,0.01,Snow,Light Snow,0,2013-03-03 14:33:00
9:46 AM,26.6,21.2,80,29.74,4.0,Calm,Calm,-,0.01,Snow,Light Snow,0,2013-03-03 14:46:00
9:54 AM,26.1,21.0,81,29.75,6.0,North,3.5,-,0.01,Snow,Light Snow,360,2013-03-03 14:54:00
10:01 AM,26.6,19.4,74,29.74,6.0,Calm,Calm,-,0.00,Snow,Light Snow,0,2013-03-03 15:01:00
10:54 AM,27.0,19.9,75,29.74,9.0,North,6.9,-,0.00,Snow,Light Snow,350,2013-03-03 15:54:00
11:18 AM,26.6,19.4,74,29.73,9.0,North,6.9,-,0.00,Snow,Light Snow,350,2013-03-03 16:18:00
11:54 AM,28.0,19.9,72,29.74,9.0,NE,4.6,-,0.00,Snow,Light Snow,50,2013-03-03 16:54:00
12:54 PM,28.9,19.9,69,29.72,9.0,NNE,3.5,-,0.00,Snow,Light Snow,20,2013-03-03 17:54:00
1:41 PM,30.2,21.2,69,29.69,9.0,NNE,3.5,-,0.00,Snow,Light Snow,30,2013-03-03 18:41:00
1:54 PM,30.0,19.9,66,29.70,9.0,NNE,4.6,-,0.00,Snow,Light Snow,30,2013-03-03 18:54:00
2:54 PM,30.0,21.9,72,29.70,5.0,North,6.9,-,0.00,Snow,Light Snow,10,2013-03-03 19:54:00
3:54 PM,30.0,21.9,72,29.70,9.0,North,5.8,-,0.00,Snow,Light Snow,360,2013-03-03 20:54:00
4:22 PM,28.4,21.2,74,29.70,5.0,NNE,4.6,-,0.00,Snow,Light Snow,20,2013-03-03 21:22:00
4:54 PM,28.9,21.9,75,29.72,9.0,NNE,6.9,-,0.00,Snow,Light Snow,20,2013-03-03 21:54:00
5:54 PM,28.0,19.0,69,29.72,9.0,NNE,5.8,-,0.00,Snow,Light Snow,30,2013-03-03 22:54:00
6:54 PM,28.0,19.0,69,29.74,10.0,NNE,3.5,-,0.00,,Overcast,20,2013-03-03 23:54:00
7:54 PM,27.0,19.0,72,29.74,10.0,Calm,Calm,-,N/A,,Overcast,0,2013-03-04 00:54:00
8:54 PM,27.0,19.0,72,29.74,10.0,NW,4.6,-,N/A,,Overcast,320,2013-03-04 01:54:00
9:54 PM,26.1,18.0,71,29.74,10.0,NNW,8.1,-,N/A,,Overcast,330,2013-03-04 02:54:00
10:54 PM,26.1,18.0,71,29.73,10.0,NW,6.9,-,N/A,,Overcast,310,2013-03-04 03:54:00
11:54 PM,25.0,17.1,72,29.73,9.0,WNW,9.2,-,0.00,Snow,Light Snow,300,2013-03-04 04:54:00